Weather History for Gwinn, MI

Change the Weather History Date:

Thursday, April 19, 2012

  Actual Average (KESC) Record (KESC)
Temperature  
Mean Temperature 36 °F -  
Max Temperature 39 °F 46 °F 79 °F (1952)
Min Temperature 32 °F 33 °F 20 °F (1983)
Degree Days  
Heating Degree Days 30    
Moisture  
Dew Point 31 °F    
Average Humidity 82    
Maximum Humidity 89    
Minimum Humidity 70    
Precipitation  
Precipitation 0.00 in - - ()
Sea Level Pressure  
Sea Level Pressure 30.00 in    
Wind  
Wind Speed 9 mph (North)    
Max Wind Speed 15 mph    
Max Gust Speed 21 mph    
Visibility 10 miles    
Events      
Averages and records for this station are not official NWS values.
T = Trace of Precipitation, MM = Missing Value Source: NWS Daily Summary

Daily Weather History Graph

Daily Weather History Graph

Search for Another Location

Airport:

Trip Planner

Search our weather history database for the weather conditions in past years. The results will help you decide how hot, cold, wet, or windy it might be!

Date:

Astronomy

Apr. 19, 2012 Rise Set
Actual Time 6:54 AM EDT 8:43 PM EDT
Civil Twilight 6:22 AM EDT 9:15 PM EDT
Nautical Twilight 5:43 AM EDT 9:54 PM EDT
Astronomical Twilight 5:01 AM EDT 10:37 PM EDT
Moon 5:52 AM EDT (4/19) 7:29 PM EDT (4/19)
Length of Visible Light 14h 52m
Length of Day
13h 48m
Waning Crescent, 2% of the Moon is Illuminated
Apr 19
Waning Crescent
Apr 21
New
Apr 29
First Quarter
May 5
Full
May 12
Last Quarter

Hourly Weather History & Observations

Time (EDT) Temp. Windchill Dew Point Humidity Pressure Visibility Wind Dir Wind Speed Gust Speed Precip Events Conditions
12:16 AM 39.7 °F 33.2 °F 34.7 °F 82% 29.93 in 10.0 mi WNW 10.4 mph - N/A   Overcast
12:37 AM 39.6 °F 33.5 °F 34.3 °F 82% 29.93 in 10.0 mi WNW 9.2 mph 17.3 mph N/A   Overcast
12:56 AM 39.2 °F 31.6 °F 34.3 °F 83% 29.94 in 10.0 mi WNW 12.7 mph - N/A   Overcast
1:17 AM 39.2 °F 35.0 °F 33.8 °F 81% 29.94 in 10.0 mi West 5.8 mph - N/A   Overcast
1:36 AM 39.2 °F - 33.8 °F 81% 29.94 in 10.0 mi Calm Calm - N/A   Overcast
1:57 AM 37.9 °F - 34.2 °F 86% 29.95 in 10.0 mi Calm Calm - N/A   Overcast
2:16 AM 37.4 °F 30.8 °F 33.4 °F 86% 29.95 in 10.0 mi NW 9.2 mph - N/A   Mostly Cloudy
2:36 AM 36.3 °F 30.8 °F 32.0 °F 84% 29.95 in 10.0 mi NW 6.9 mph - N/A   Scattered Clouds
2:57 AM 35.6 °F 29.9 °F 32.0 °F 87% 29.95 in 10.0 mi NNW 6.9 mph - N/A   Clear
3:16 AM 34.7 °F 29.6 °F 31.8 °F 89% 29.96 in 10.0 mi NNW 5.8 mph - N/A   Scattered Clouds
3:36 AM 34.7 °F 28.8 °F 31.8 °F 89% 29.96 in 10.0 mi NW 6.9 mph - N/A   Mostly Cloudy
3:57 AM 35.1 °F 29.3 °F 32.0 °F 89% 29.96 in 10.0 mi NNW 6.9 mph - N/A   Overcast
4:16 AM 35.1 °F 31.0 °F 32.0 °F 89% 29.96 in 10.0 mi North 4.6 mph - N/A   Overcast
4:37 AM 35.6 °F 27.5 °F 31.8 °F 86% 29.97 in 10.0 mi NNW 11.5 mph - N/A   Overcast
4:57 AM 35.8 °F 27.3 °F 30.4 °F 81% 29.97 in 10.0 mi North 12.7 mph 16.1 mph N/A   Overcast
5:16 AM 35.6 °F 27.5 °F 29.3 °F 78% 29.97 in 10.0 mi North 11.5 mph - N/A   Overcast
5:37 AM 35.6 °F 29.9 °F 28.6 °F 76% 29.97 in 10.0 mi NNW 6.9 mph - N/A   Overcast
5:57 AM 35.1 °F 29.3 °F 29.3 °F 80% 29.97 in 10.0 mi North 6.9 mph - N/A   Overcast
6:50 AM 35.6 °F 30.7 °F 30.2 °F 81% 30.01 in 10.0 mi NNW 5.8 mph - N/A   Overcast
7:50 AM 35.6 °F 30.7 °F 30.2 °F 81% 30.03 in 10.0 mi NNW 5.8 mph - N/A   Overcast
8:51 AM 35.6 °F 28.6 °F 30.2 °F 81% 30.04 in 7.0 mi North 9.2 mph - N/A   Overcast
10:50 AM 37.4 °F 28.9 °F 30.2 °F 75% 30.05 in 10.0 mi North 13.8 mph 20.7 mph N/A   Overcast
11:50 AM 37.4 °F 29.8 °F 30.2 °F 75% 30.07 in 10.0 mi NNE 11.5 mph - N/A   Overcast
12:50 PM 37.4 °F 29.8 °F 30.2 °F 75% 30.06 in 10.0 mi North 11.5 mph - N/A   Overcast
1:50 PM 39.2 °F 32.0 °F 30.2 °F 70% 30.07 in 10.0 mi NNE 11.5 mph - N/A   Overcast
2:50 PM 39.2 °F 33.0 °F 30.2 °F 70% 30.06 in 10.0 mi NE 9.2 mph - N/A   Overcast
3:50 PM 39.2 °F 31.2 °F 30.2 °F 70% 30.06 in 10.0 mi NNE 13.8 mph - N/A   Overcast
4:50 PM 37.4 °F 29.8 °F 30.2 °F 75% 30.06 in 10.0 mi NNE 11.5 mph - N/A   Overcast
5:50 PM 35.6 °F 26.6 °F 30.2 °F 81% 30.02 in 10.0 mi NNE 13.8 mph - N/A   Overcast
6:50 PM 35.6 °F 29.2 °F 28.4 °F 75% 30.03 in 10.0 mi NNE 8.1 mph - N/A   Overcast
7:50 PM 33.8 °F 25.8 °F 30.2 °F 87% 30.30 in 10.0 mi NNE 10.4 mph - N/A   Overcast
8:50 PM 33.8 °F 25.8 °F 30.2 °F 87% 30.00 in 10.0 mi NNE 10.4 mph - N/A   Overcast
9:50 PM 33.8 °F 25.8 °F 30.2 °F 87% 30.00 in 10.0 mi NE 10.4 mph - N/A   Overcast
10:16 PM 33.1 °F 23.0 °F 29.5 °F 87% 30.01 in 10.0 mi NNE 15.0 mph - N/A   Overcast
10:37 PM 32.9 °F 23.7 °F 29.3 °F 87% 30.00 in 10.0 mi NNE 12.7 mph - N/A   Overcast
10:56 PM 32.5 °F 23.7 °F 29.3 °F 88% 30.00 in 10.0 mi NNE 11.5 mph - N/A   Overcast
11:17 PM 32.7 °F 23.4 °F 29.3 °F 87% 29.99 in 10.0 mi NNE 12.7 mph - N/A   Overcast
11:37 PM 32.9 °F 23.7 °F 29.8 °F 88% 29.99 in 10.0 mi NNE 12.7 mph 18.4 mph N/A   Overcast
11:56 PM 33.8 °F 25.3 °F 30.2 °F 87% 29.99 in 10.0 mi NNE 11.5 mph - N/A   Overcast